User: anonymous   Login
Location: Unspecified
(0.0000°N, 0.0000°E)
Time: 06:50:50
(UTC+00:00)
Language:

M-CUBED/EXP-1 PRIME - Orbit

View from above orbital plane
View from above orbital plane
View from above satellite
View from above satellite

Ground track
Ground track

The orbit data is extracted from the following two-line orbital elements,

1 37855U 11061F   17087.77210779 +.00001936 +00000-0 +10971-3 0  9990
2 37855 101.7243 278.3267 0181578 318.9896 039.7777 15.02714108294247
Epoch (UTC): 28 March 2017 18:31:50
Eccentricity: 0.0181578
inclination: 101.7243°
perigee height: 432 km
apogee height: 684 km
right ascension of ascending node: 278.3267°
argument of perigee: 318.9896°
revolutions per day: 15.02714108
mean anomaly at epoch: 39.7777°
orbit number at epoch: 29424

The dashed part of the orbit path shows where the satellite is in the earth's shadow,  

DLR